Home > Weather > Madrid > Past weeks

Flag for Spain Weather for the Past 2 Weeks in Madrid, Spain

Now
52 °F

Rain. Low clouds.


Feels Like: 46 °F
Forecast: 47 / 57 °F
Wind: 17 mph from Southwest

Location: Madrid / Cuatro Vientos

Current Time: Feb 11, 2016 at 12:06:26 PM

Latest Report: Feb 11, 2016 at 11:30 AM


Visibility: 3 mi

Pressure: 29.95 "Hg (27.67 "Hg at 658m altitude)

Humidity: 100%

Dew point: 52 °F

Location of MadridLocation

Historic Weather in Madrid — Graph

°F

Madrid Temperature Yesterday

Maximum temperature yesterday: 55 °F (at 3:00 PM)
Minimum temperature yesterday: 46 °F (at 7:00 AM)
Average temperature yesterday: 52 °F

High & Low Weather Summary for the Past Weeks

 TemperatureHumidityPressure
High66 °F (Feb 1, 3:30 PM)100% (Jan 27, 11:00 AM)30.63 "Hg (Jan 27, 11:00 AM)
Low36 °F (Feb 5, 7:30 AM)29% (Feb 3, 4:30 PM)29.89 "Hg (Feb 10, 4:00 PM)
Average49 °F76%30.33 "Hg
* Reported Jan 27 11:00 AM — Feb 11 11:00 AM, Madrid, Weather by CustomWeather, © 2016

Note: Actual official high and low records may vary slightly from our data, if they occured in-between our weather recording intervals... More about our weather records

Advertising

Madrid Weather History for the Previous 24 Hours

 ConditionsComfort  
Time TempWeatherWind HumidityBarometerVisibility
11:00 AM
Thu, Feb 11
52 °FLight rain. Low clouds.16 mph100%29.92 "HgN/A
10:30 AM52 °FRain. Low clouds.17 mph100%29.95 "Hg3 mi
10:00 AM52 °FPartly sunny.14 mph100%29.92 "HgN/A
9:30 AM52 °FRain. Low clouds.16 mph94%29.92 "Hg3 mi
9:00 AM52 °FLight rain. Low clouds.18 mph94%29.92 "Hg6 mi
8:30 AM52 °FLow clouds.18 mph94%29.92 "HgN/A
8:00 AM52 °FLow clouds.20 mph94%29.92 "HgN/A
7:30 AM52 °FLow clouds.20 mph94%29.92 "HgN/A
7:00 AM52 °FLow clouds.18 mph94%29.92 "HgN/A
8:00 PM
Wed, Feb 10
55 °FPassing clouds.12 mph88%29.95 "HgN/A
7:30 PM55 °FPassing clouds.16 mph88%29.95 "HgN/A
7:00 PM55 °FPassing clouds.20 mph88%29.92 "HgN/A
6:30 PM55 °FPartly sunny.18 mph94%29.92 "HgN/A
6:00 PM55 °FBroken clouds.22 mph94%29.89 "HgN/A
5:30 PM55 °FBroken clouds.26 mph88%29.89 "HgN/A
5:00 PM55 °FBroken clouds.26 mph94%29.89 "HgN/A
4:30 PM55 °FBroken clouds.26 mph94%29.89 "HgN/A
4:00 PM55 °FBroken clouds.28 mph94%29.89 "HgN/A
3:30 PM55 °FPartly sunny.23 mph88%29.92 "HgN/A
3:00 PM55 °FPartly sunny.23 mph88%29.92 "HgN/A
2:30 PM54 °FPartly sunny.29 mph94%29.95 "HgN/A
2:00 PM54 °FPartly sunny.26 mph88%29.95 "HgN/A
1:30 PM54 °FPartly sunny.31 mph88%29.95 "HgN/A
1:00 PM52 °FPartly sunny.28 mph94%29.98 "HgN/A
12:30 PM52 °FPartly sunny.30 mph94%29.98 "HgN/A
12:00 PM52 °FPartly sunny.26 mph88%30.01 "HgN/A
Weather by CustomWeather, © 2016

See weather overviewHow to use our weather pages